Location: Kolsassberg
(47.3000°N, 11.6333°E)
Time: 11:28:12
(UTC+00:00)

Daily predictions for brighter satellites

Satellite Brightness Start Highest point End
(mag) Time Altitude Azimuth Time Altitude Azimuth Time Altitude Azimuth
Cosmos 468 Rocket 4.4 15:49:36 10° S 15:54:27 43° ESE 15:59:21 10° NE
SJ-7 4.5 15:51:32 10° SSE 15:55:42 75° ENE 15:59:57 10° N
H-2A R/B 4.4 15:52:35 10° SSW 15:56:00 36° W 15:59:25 10° NNW
ATLAS CENTAUR R/B 3.4 15:52:49 10° W 15:56:12 22° NNW 15:59:46 10° NNE
Cosmos 1898 Rocket 3.7 15:52:31 10° NNW 15:57:40 51° ENE 16:02:43 10° SE
COSMOS 2455 3.9 15:54:29 10° SSE 15:59:22 26° ESE 16:04:16 10° NE
Cosmos 1606 2.9 15:56:56 10° SSW 16:00:40 74° W 16:04:29 10° N
Cosmos 2026 Rocket 4.4 15:57:06 10° N 16:02:48 38° ENE 16:08:23 10° SE
USA 308 3.8 15:59:07 10° WNW 16:03:03 35° N 16:06:59 10° ENE
Cosmos 1408 Rocket 3.6 15:58:54 10° N 16:03:17 87° W 16:07:39 10° S
Cosmos 1340 Rocket 2.8 15:59:43 10° N 16:03:48 68° ENE 16:07:51 10° SSE
CZ-2C R/B 4.1 16:01:19 10° NE 16:04:20 15° E 16:07:21 10° SE
ERBS 3.8 16:02:34 10° W 16:05:17 24° NNW 16:08:00 10° NE
CZ-4C R/B 3.7 16:01:58 10° N 16:05:49 64° WNW 16:09:26 10° SSW
CZ-2D R/B 4.4 16:02:50 10° ESE 16:05:51 22° ENE 16:08:52 10° NNE
CZ-2C R/B 2.9 16:00:58 10° SSE 16:05:52 81° ENE 16:10:39 10° NNW
MOS 1 Rocket 4.4 16:01:49 10° N 16:06:38 46° WNW 16:11:09 10° SW
CZ-4B R/B 4.1 16:02:25 10° ESE 16:06:39 24° ENE 16:10:51 10° N
Cosmos 2360 4.3 16:02:55 10° NNW 16:08:36 58° ENE 16:14:13 10° SE
Cosmos 1500 4.2 16:07:59 10° NNE 16:11:06 24° ENE 16:14:10 10° SE
Cosmos 1743 Rocket 3.5 16:07:27 10° N 16:11:46 62° E 16:16:03 10° SSE
Meteor 1-20 Rocket 4.3 16:06:02 10° N 16:11:50 64° ENE 16:17:38 10° SSE
Lacrosse 5 rocket 2.6 16:08:48 10° NW 16:11:56 23° NNE 16:14:59 11° ENE
NOSS 2-2 (C) 4.5 16:07:31 10° NNW 16:12:18 47° NE 16:18:52 10° ESE
Okean O Rocket 3.0 16:12:00 10° ESE 16:15:01 18° ENE 16:18:02 10° NNE
USA 267 3.3 16:13:56 10° NE 16:20:31 83° SE 16:27:04 10° SW
H-2A R/B 2.5 16:19:00 10° SE 16:23:45 38° ENE 16:28:23 10° N
Cosmos 2360 Rocket 4.0 16:22:21 10° NNE 16:23:56 11° NNE 16:25:23 10° NE
SJ 16-02 4.3 16:22:05 10° NW 16:25:19 20° W 16:28:33 10° SW
Cosmos 1809 Rocket 4.5 16:19:45 10° N 16:25:47 60° ENE 16:31:47 10° SSE
Cosmos 1763 Rocket 3.4 16:22:29 10° SSW 16:27:33 85° ESE 16:32:41 10° NNE
CZ-4B R/B 3.4 16:24:06 10° S 16:28:07 63° WSW 16:31:58 10° NNW
USA 276 4.1 16:26:54 10° W 16:29:40 29° SSW 16:32:26 10° SSE
USA 305 3.9 16:26:03 10° WNW 16:29:54 33° N 16:32:46 16° ENE
Cosmos 1933 3.3 16:29:29 10° S 16:33:29 66° E 16:37:30 10° NNE
Cosmos 841 Rocket 3.8 16:29:09 10° S 16:34:00 44° ESE 16:38:47 11° NE
PSLV R/B 3.8 16:30:43 10° SSE 16:34:16 49° ENE 16:37:54 10° N
USA 229 DEB 4.2 16:29:10 10° NW 16:36:30 77° SW 16:44:18 10° SSE
USA 229 4.2 16:29:16 10° NW 16:36:36 77° SW 16:44:24 10° SSE
MOS 1-B 4.4 16:31:20 10° SE 16:36:55 54° ENE 16:42:33 10° N
Cosmos 1937 Rocket 3.5 16:32:21 10° NNW 16:37:43 79° ENE 16:43:01 10° SSE
Cosmos 1500 Rocket 4.1 16:35:51 10° NNW 16:40:16 63° W 16:44:36 10° S
Cosmos 1666 3.5 16:37:22 10° NNE 16:40:37 28° ENE 16:43:52 10° SE
SL-24 R/B - RUBIN 2 3.5 16:38:49 10° NNW 16:43:22 63° NE 16:47:40 10° SE
Cosmos 2322 Rocket 3.5 16:40:37 10° N 16:44:40 19° NE 16:45:58 18° ENE
ATLAS 2AS CENTAUR R/B 4.3 16:38:55 10° WNW 16:44:51 23° N 16:50:01 12° NE
Cosmos 1697 Rocket 3.0 16:41:26 10° NNW 16:47:03 72° WSW 16:52:38 10° SSE
Cosmos 372 Rocket 3.9 16:43:42 10° NNW 16:48:55 65° ENE 16:54:08 10° SSE
NOAA 6 4.3 16:43:59 10° S 16:49:07 73° WSW 16:54:17 10° NNW
Sich 1 2.9 16:45:44 10° N 16:50:02 78° E 16:54:21 10° SSE
Cosmos 1980 Rocket 2.1 16:45:45 10° NNW 16:51:26 69° ENE 16:57:02 10° SE
Cosmos 2221 4.5 16:48:14 10° SW 16:51:58 29° WNW 16:55:45 10° N
Cosmos 1805 Rocket 3.6 16:47:41 10° NNW 16:52:02 79° W 16:56:21 10° S
Meteor 1-14 Rocket 4.4 16:46:57 10° N 16:52:40 54° ENE 16:58:27 10° SSE
Cosmos 2369 3.7 16:47:34 10° NNW 16:53:21 87° ENE 16:59:05 10° SSE
USA 234 3.4 16:48:01 10° SE 16:54:34 76° SW 17:01:07 10° NW
SL-08 RB Rocket 4.4 16:53:20 10° SE 16:57:23 31° ENE 17:01:26 10° N
Meteor 1-5 Rocket 4.4 16:51:45 10° N 16:57:38 54° ENE 17:03:24 10° SSE
Cosmos 1092 Rocket 4.3 16:51:40 10° NNW 16:58:02 75° W 17:04:20 10° S
CZ-4C R/B 2.9 16:51:00 10° NW 16:58:02 65° NE 17:06:20 10° SE
Cosmos 1812 2.9 16:56:46 10° S 17:00:29 49° E 17:02:43 22° NNE
USA 306 3.8 16:58:18 10° WNW 17:02:12 33° N 17:03:35 26° NE
SL-16 R/B 3.0 16:57:49 10° NNW 17:02:45 29° NE 17:04:16 26° ENE
ISS -3.8 17:00:11 10° WNW 17:03:35 89° SW 17:04:58 33° ESE
deb Chang Zheng 4 3.6 17:00:19 10° SSE 17:04:32 57° ENE 17:08:47 10° N
MOS 1-B Rocket 4.0 16:58:54 10° NNE 17:04:46 67° ESE 17:11:27 10° S
SMAP 4.1 17:00:43 10° S 17:05:12 48° W 17:09:44 10° NNW
NOSS 2-2 (D) 4.4 17:00:25 10° NW 17:05:36 88° SW 17:12:56 10° SE
Cosmos 1939 Rocket 4.5 17:02:39 10° SSW 17:06:31 38° W 17:10:21 10° NNW
Cosmos 2082 Rocket 2.2 17:00:57 10° SSW 17:06:35 68° ESE 17:10:43 19° NE
Cosmos 44 Rocket 3.6 17:08:07 10° NNW 17:12:54 44° NE 17:14:23 34° E
Cosmos 2333 Rocket 4.1 17:10:20 10° N 17:12:26 13° NNE 17:12:26 13° NNE
Meteor 2-16 Rocket 4.3 17:08:32 10° N 17:14:40 75° E 17:20:48 10° SSE
Cosmos 2278 3.6 17:11:41 10° NNW 17:17:26 78° ENE 17:23:07 10° SSE
Cosmos 2142 Rocket 4.4 17:12:24 10° S 17:18:32 77° E 17:24:46 10° NNE
YAOGAN 3 4.4 17:15:05 10° SSE 17:19:24 68° ENE 17:23:45 10° N
USA 307 3.7 17:17:06 10° WNW 17:21:03 35° N 17:21:38 33° NNE
Cosmos 540 Rocket 3.9 17:16:34 10° SW 17:21:35 59° WNW 17:26:07 13° NNE
ARGOS 3.0 17:19:10 10° SSE 17:24:34 77° ENE 17:30:00 10° NNW
COSMO-SKYMED 1 2.4 17:23:24 25° NNE 17:25:53 76° ESE 17:30:13 10° S
Cosmos 2279 Rocket 3.9 17:19:55 10° S 17:26:08 82° E 17:32:22 10° N
Cosmos 1570 Rocket 3.9 17:21:01 10° S 17:26:12 66° ESE 17:28:35 32° NE
Cosmos 2298 Rocket 4.2 17:22:11 10° NNW 17:27:21 48° ENE 17:28:50 38° ESE
COSMOS 2406 3.8 17:21:48 10° SW 17:27:27 56° WNW 17:32:09 15° NNE
Cosmos 1833 Rocket 3.7 17:23:31 10° SW 17:28:51 44° NW 17:33:41 13° NNE
Cosmos 1782 3.9 17:25:51 10° SSW 17:29:41 44° WNW 17:33:31 10° N
Cosmos 2266 Rocket 4.1 17:23:47 10° N 17:30:03 54° ENE 17:36:19 10° SSE
Cosmos 1814 Rocket 3.9 17:25:49 10° SSW 17:31:03 83° ESE 17:33:45 29° NNE
ATLAS 5 CENTAUR R/B 2.1 17:26:29 10° NW 17:33:08 51° NNE 17:33:08 51° NNE
Cosmos 921 Rocket 4.0 17:30:14 10° S 17:32:43 30° SSE 17:32:43 30° SSE
Helios 1B 4.4 17:32:06 29° NNE 17:34:16 89° ESE 17:38:36 10° SSW
Cosmos 1633 Rocket 3.1 17:30:50 10° NNW 17:35:13 78° W 17:39:36 10° S
Cosmos 1818 3.5 17:31:29 10° NW 17:36:59 69° NE 17:38:50 41° ESE
YAOGAN 1 4.2 17:39:35 22° N 17:39:35 22° N 17:41:15 10° N
Cosmos 2219 Rocket 4.2 17:35:09 10° N 17:36:27 13° NNE 17:36:27 13° NNE
GEOS 3 Rocket 3.6 17:37:58 47° E 17:39:08 59° NE 17:44:14 10° NNW
Meteor 2-6 Rocket 4.1 17:35:19 10° S 17:41:04 80° E 17:45:15 19° NNE
SJ-11-01 4.5 17:37:52 10° S 17:42:36 72° WSW 17:47:21 10° NNW
USA 308 3.8 17:39:41 10° WNW 17:43:13 37° N 17:43:13 37° N
COSMOS 2455 3.2 17:38:54 10° SW 17:44:52 63° NW 17:48:14 27° NNE
CZ-2C R/B 2.6 17:40:35 13° N 17:45:16 77° WNW 17:50:25 10° SSW
CZ-4B R/B 3.7 17:41:30 10° S 17:46:50 58° WSW 17:52:08 10° NNW
Cosmos 1151 Rocket 3.7 17:44:26 10° SSW 17:48:39 55° WNW 17:51:27 21° N
Spot 2 4.3 17:46:44 28° SSE 17:49:29 71° ENE 17:54:36 10° N
Okean O Rocket 2.2 17:46:32 10° S 17:50:56 59° WSW 17:55:21 10° NNW
Lacrosse 5 rocket 1.9 17:47:39 10° NW 17:50:36 47° NNW 17:50:36 47° NNW
Meteor 2-15 4.3 17:52:21 10° S 17:58:28 89° E 18:03:28 16° N
Cosmos 2208 Rocket 4.1 17:54:50 10° SSW 18:00:14 82° WNW 18:01:39 51° NNE
Meteor 1-10 Rocket 4.1 17:57:09 10° S 18:02:57 88° E 18:04:52 44° NNE
H-2A R/B 3.8 17:58:41 10° SSW 18:03:14 31° W 18:07:43 10° NNW
USA 267 3.8 18:01:03 35° NNE 18:03:17 48° NNW 18:09:29 10° W
Meteor 1-11 Rocket 3.6 17:57:38 10° N 18:03:17 81° ENE 18:05:46 35° SSE
Cosmos 1470 Rocket 3.9 17:59:51 10° NNW 18:04:17 67° W 18:08:42 10° S
Cosmos 2150 Rocket 3.8 17:59:36 10° NNW 18:04:48 87° NE 18:04:48 87° NE
Cosmos 1328 Rocket 4.3 18:01:53 10° SSW 18:06:12 51° WNW 18:07:30 38° NNW
Cosmos 1655 Rocket 4.0 18:00:00 10° N 18:06:25 82° W 18:12:46 10° S
Landsat 5 4.1 18:08:41 52° W 18:08:41 52° W 18:12:14 10° SSW
Cosmos 2360 Rocket 3.5 18:04:16 10° NNW 18:07:10 27° N 18:07:10 27° N
USA 305 4.3 18:06:16 10° NW 18:08:46 31° NW 18:08:46 31° NW
ATLAS CENTAUR R/B 3.5 18:14:41 10° W 18:20:43 33° NW 18:20:43 33° NW
Cosmos 1125 Rocket 3.8 18:17:40 10° NNW 18:22:14 63° WNW 18:22:14 63° WNW
Cosmos 2322 Rocket 2.9 18:23:51 10° NNW 18:27:49 46° NNW 18:27:49 46° NNW
ATLAS 2AS CENTAUR R/B 4.1 18:32:16 10° NW 18:37:27 26° N 18:37:27 26° N
ISS -0.2 18:37:40 10° W 18:37:58 11° W 18:37:58 11° W
CZ-4C R/B 4.2 18:39:46 10° NW 18:46:35 40° WSW 18:54:16 10° S
SL-16 R/B 3.0 18:41:38 10° NW 18:46:11 49° WNW 18:46:11 49° WNW
Cosmos 2082 Rocket 4.0 18:46:33 10° WSW 18:51:11 25° NW 18:52:35 23° NNW
Cosmos 2333 Rocket 4.4 18:53:14 10° NNW 18:54:27 16° NNW 18:54:27 16° NNW
